Regional Weather Roundup
Issued by NWS

Home | Current Version | Previous Version | Text Only | Print | Product List | Glossary Off
Versions: 1 2 3 4 5 6 7 8 9 10 11 12 13 14 15 16 17 18 19 20 21 22 23 24 25 26 27 28 29 30 31 32 33 34 35 36 37 38 39 40 41 42 43 44 45 46 47 48 49 50

000
ASUS43 KLSX 210659
RWRMO

WEATHER SUMMARY FOR MISSOURI
NATIONAL WEATHER SERVICE SPRINGFIELD MO
100 AM CST SUN DEC 21 2014

NOTE: "FAIR" INDICATES FEW OR NO CLOUDS BELOW 12,000 FEET WITH NO
       SIGNIFICANT WEATHER AND/OR OBSTRUCTIONS TO VISIBILITY.
       CURRENT SKY AND/OR WEATHER CONDITIONS ARE NOT AVAILABLE FOR
       CHILLICOTHE AND FARMINGTON.

MOZ001>031-035>038-043-044-053-054-210800-
...NORTHERN AND WESTERN MISSOURI...

CITY           SKY/WX    TMP DP  RH WIND       PRES   REMARKS
KANSAS CTY INT PTCLDY    35  33  92 S12       30.09F WCI  27
KANSAS C DTWN  PTCLDY    37  32  82 S9        30.10F
LEE`S SUMMIT   PTCLDY    35  32  88 S10       30.11F WCI  27
ST JOSEPH      PTCLDY    35  32  88 S8        30.09F WCI  29
CHILLICOTHE      N/A     39  35  86 S7        30.14F
KIRKSVILLE     CLOUDY    38  36  92 S6        30.15F

$$
MOZ066>068-077>081-088>096-101>105-210800-
...SOUTHWEST MISSOURI...

CITY           SKY/WX    TMP DP  RH WIND       PRES   REMARKS
SPRINGFIELD    CLOUDY    40  36  86 S6        30.16F
JOPLIN         CLOUDY    43  37  79 S7        30.16F

$$
MOZ032>034-039>042-045>050-055>058-069>072-210800-
...CENTRAL MISSOURI...

CITY           SKY/WX    TMP DP  RH WIND       PRES   REMARKS
COLUMBIA       CLOUDY    40  35  83 S9        30.18F
JEFFERSON CITY CLOUDY    42  35  76 SE5       30.19F
ROLLA          CLOUDY    39  33  79 S6        30.17F
SEDALIA        CLOUDY    42  35  76 S9        30.16F
OSAGE BEACH    CLOUDY    43  34  70 S3        30.18F

$$
MOZ051-052-059>065-210800-
...EAST CENTRAL MISSOURI...

CITY           SKY/WX    TMP DP  RH WIND       PRES   REMARKS
ST LOUIS INTL  CLOUDY    42  32  67 S7        30.23F
SPIRIT OF STL  CLOUDY    41  34  76 S3        30.22F
ST CHARLES     CLOUDY    40  35  83 S9        30.22F

$$
MOZ072>076-082>087-097>100-106>115-210800-
...SOUTH CENTRAL AND SOUTHEAST MISSOURI...

CITY           SKY/WX    TMP DP  RH WIND       PRES   REMARKS
CAPE GIRARDEAU CLOUDY    33  32  96 CALM      30.27S
FARMINGTON     CLOUDY    37  34  87 CALM      30.24S
POPLAR BLUFF   CLOUDY    41  33  73 E6        30.25S
WEST PLAINS    CLOUDY    39  35  86 SE3       30.20F

$$



USA.gov is the U.S. government's official web portal to all federal, state and local government web resources and services.